Home > Weather > Périgueux > Past weeks

Flag for France Past Weather in Périgueux, Aquitaine, France — Yesterday and Last 2 Weeks

Now
79 °F

Passing clouds.


Feels Like: 80 °F
Forecast: 53 / 76 °F
Wind: 6 mph from Northwest

Location: Bergerac Airport

Current Time: Jun 28, 2016 at 5:09:26 PM

Latest Report: Jun 28, 2016 at 4:30 PM


Visibility: N/A

Pressure: 30.07 "Hg

Humidity: 51%

Dew Point: 59 °F

Location of PérigueuxLocation

Past Weather in Périgueux — Graph

°F

Périgueux Temperature Yesterday

Maximum temperature yesterday: 70 °F (at 4:30 PM)
Minimum temperature yesterday: 50 °F (at 6:00 AM)
Average temperature yesterday: 62 °F

High & Low Weather Summary for the Past Weeks

 TemperatureHumidityPressure
High91 °F (Jun 22, 3:30 PM)100% (Jun 18, 5:00 AM)30.39 "Hg (Jun 18, 5:00 AM)
Low48 °F (Jun 20, 5:00 AM)36% (Jun 23, 6:00 PM)29.56 "Hg (Jun 15, 5:30 PM)
Average65 °F76%30.05 "Hg
* Reported Jun 13 4:00 PM — Jun 28 4:00 PM, Périgueux, Weather by CustomWeather, © 2016

Note: Actual official high and low records may vary slightly from our data, if they occured in-between our weather recording intervals... More about our weather records

Advertising

Périgueux Weather History for the Previous 24 Hours

Scroll right to see more
 ConditionsComfort  
Time TempWeatherWind HumidityBarometerVisibility
4:00 PM
Tue, Jun 28
79 °FPassing clouds.6 mph51%30.07 "HgN/A
3:30 PM79 °FPassing clouds.5 mph54%30.07 "HgN/A
3:00 PM77 °FPassing clouds.3 mph51%30.07 "HgN/A
2:30 PM75 °FSunny.3 mph57%30.09 "Hg10 mi
2:00 PM73 °FPassing clouds.3 mph57%30.09 "HgN/A
1:30 PM75 °FPartly sunny.3 mph57%30.09 "HgN/A
1:00 PM73 °FPassing clouds.2 mph57%30.12 "HgN/A
12:30 PM72 °FPassing clouds.3 mph65%30.12 "HgN/A
12:00 PM70 °FPartly sunny.3 mph64%30.12 "HgN/A
11:30 AM72 °FPartly sunny.3 mph65%30.15 "HgN/A
11:00 AM70 °FPartly sunny.3 mph64%30.15 "HgN/A
10:30 AM70 °FPassing clouds.2 mph64%30.15 "HgN/A
10:00 AM66 °FSunny.2 mph78%30.15 "Hg10 mi
9:30 AM66 °FSunny.No wind83%30.15 "Hg10 mi
9:00 AM63 °FSunny.No wind88%30.15 "Hg10 mi
8:30 AM59 °FSunny.No wind94%30.15 "Hg10 mi
8:00 AM57 °FSunny.No wind94%30.15 "Hg10 mi
7:30 AM54 °FSunny.No wind100%30.18 "Hg10 mi
7:00 AM52 °FPassing clouds.No wind100%30.15 "Hg4 mi
6:30 AM52 °FClear.2 mph100%30.18 "Hg6 mi
6:00 AM52 °FClear.2 mph94%30.18 "Hg10 mi
5:30 AM52 °FClear.3 mph94%30.18 "Hg4 mi
5:00 AM52 °FClear.2 mph100%30.18 "Hg4 mi
4:30 AM52 °FClear.2 mph100%30.18 "Hg4 mi
4:00 AM52 °FClear.3 mph100%30.18 "Hg5 mi
3:30 AM54 °FClear.2 mph94%30.18 "Hg5 mi
3:00 AM54 °FClear.No wind94%30.18 "Hg4 mi
2:30 AM54 °FClear.No wind94%30.18 "Hg4 mi
2:00 AM54 °FClear.No wind100%30.18 "Hg6 mi
1:30 AM55 °FClear.1 mph94%30.21 "Hg10 mi
1:00 AM55 °FClear.No wind94%30.21 "Hg10 mi
12:30 AM57 °FClear.No wind88%30.21 "Hg10 mi
12:00 AM57 °FClear.No wind94%30.21 "Hg10 mi
11:30 PM
Mon, Jun 27
59 °FClear.3 mph88%30.21 "Hg10 mi
11:00 PM61 °FPassing clouds.2 mph88%30.21 "HgN/A
10:30 PM64 °FOvercast.2 mph78%30.21 "HgN/A
10:00 PM66 °FOvercast.3 mph73%30.21 "HgN/A
9:30 PM66 °FOvercast.6 mph73%30.21 "HgN/A
9:00 PM66 °FOvercast.6 mph73%30.21 "HgN/A
8:30 PM68 °FOvercast.7 mph69%30.21 "HgN/A
8:00 PM68 °FOvercast.6 mph69%30.21 "HgN/A
7:30 PM68 °FOvercast.6 mph69%30.21 "HgN/A
7:00 PM68 °FOvercast.5 mph69%30.21 "HgN/A
6:30 PM70 °FOvercast.5 mph64%30.21 "HgN/A
6:00 PM70 °FOvercast.3 mph64%30.21 "HgN/A
5:30 PM68 °FOvercast.7 mph69%30.24 "HgN/A
5:00 PM68 °FOvercast.8 mph69%30.24 "HgN/A
Weather by CustomWeather, © 2016

See weather overviewHow to use our weather pages